VE7SML-6 Weather Reports


time (UTC)temp
C
wind
direction
speed
KPH
gust
KPH
rain 1hr
cm
rain 24hr
cm
rain mn
cm
humidity
%
barometer
mb
20260506043733 15 157 12.9 16.1 0.00 0.00 0.00 52 1111.0
20260506043233 15 180 14.5 22.5 0.00 0.00 0.00 53 1111.0
20260506042732 15 157 14.5 17.7 0.00 0.00 0.00 53 1111.0
20260506042232 16 157 9.7 22.5 0.00 0.00 0.00 53 1111.0
20260506041732 16 157 4.8 17.7 0.00 0.00 0.00 53 1111.0
20260506041232 16 157 0.0 16.1 0.00 0.00 0.00 53 1111.0
20260506040731 16 157 14.5 20.9 0.00 0.00 0.00 53 1111.0
20260506040231 16 157 4.8 16.1 0.00 0.00 0.00 53 1111.0
20260506035731 17 157 0.0 16.1 0.00 0.00 0.00 54 1111.0
20260506035230 17 157 6.4 20.9 0.00 0.00 0.00 54 1111.0
20260506034730 17 157 9.7 20.9 0.00 0.00 0.00 54 1111.0
20260506034230 17 180 0.0 17.7 0.00 0.00 0.00 54 1111.0
20260506033730 18 180 9.7 14.5 0.00 0.00 0.00 54 1111.0
20260506033229 18 157 0.0 19.3 0.00 0.00 0.00 54 1111.0
20260506032729 19 157 11.3 14.5 0.00 0.00 0.00 54 1111.0
20260506032229 20 157 4.8 20.9 0.00 0.00 0.00 54 1111.0
20260506031728 20 157 8.0 16.1 0.00 0.00 0.00 55 1111.0
20260506031228 21 157 0.0 17.7 0.00 0.00 0.00 55 1111.0
20260506030229 21 157 0.0 16.1 0.00 0.00 0.00 56 1111.0
20260506025727 21 157 0.0 11.3 0.00 0.00 0.00 56 1111.0
20260506025227 22 157 0.0 19.3 0.00 0.00 0.00 56 1111.0
20260506024727 22 157 4.8 12.9 0.00 0.00 0.00 56 1111.0
20260506022225 23 247 0.0 17.7 0.00 0.00 0.00 56 1111.0
20260506021725 23 247 3.2 12.9 0.00 0.00 0.00 56 1111.0
20260506020224 23 247 11.3 19.3 0.00 0.00 0.00 56 1111.0
20260506015724 23 247 19.3 20.9 0.00 0.00 0.00 56 1111.0
20260506015224 24 247 3.2 19.3 0.00 0.00 0.00 56 1111.0
20260506014725 24 247 1.6 19.3 0.00 0.00 0.00 56 1111.0
20260506014223 24 247 0.0 17.7 0.00 0.00 0.00 56 1111.0
20260506013723 25 247 6.4 17.7 0.00 0.00 0.00 56 1111.0
20260506013224 25 247 14.5 19.3 0.00 0.00 0.00 56 1111.0
20260506012723 25 247 16.1 22.5 0.00 0.00 0.00 55 1111.0
20260506005221 26 157 16.1 16.1 0.00 0.00 0.00 55 1111.0
20260506000719 26 157 8.0 20.9 0.00 0.00 0.00 53 1111.0
20260506000219 26 157 6.4 20.9 0.00 0.00 0.00 53 1111.0
20260505234718 27 157 12.9 20.9 0.00 0.00 0.00 52 1111.0
20260505233717 27 247 12.9 17.7 0.00 0.00 0.00 51 1111.0
20260505231216 27 247 0.0 22.5 0.00 0.00 0.00 51 1111.0
20260505230715 27 247 11.3 17.7 0.00 0.00 0.00 51 1111.0
20260505230215 27 247 4.8 14.5 0.00 0.00 0.00 51 1111.0
20260505224714 26 247 9.7 9.7 0.00 0.00 0.00 51 1111.0
20260505223214 26 247 3.2 11.3 0.00 0.00 0.00 50 1111.0
20260505222713 26 247 3.2 9.7 0.00 0.00 0.00 50 1111.0
20260505221711 26 157 4.8 11.3 0.00 0.00 0.00 50 1111.0
20260505221211 26 157 3.2 14.5 0.00 0.00 0.00 50 1111.0
20260505220711 26 157 14.5 14.5 0.00 0.00 0.00 49 1111.0
20260505220211 26 247 0.0 12.9 0.00 0.00 0.00 49 1111.0
20260505215710 26 247 12.9 12.9 0.00 0.00 0.00 49 1111.0
20260505214710 26 247 17.7 17.7 0.00 0.00 0.00 49 1111.0
20260505213210 26 247 0.0 9.7 0.00 0.00 0.00 50 1111.0
20260505211209 26 247 1.6 11.3 0.00 0.00 0.00 50 1111.0
20260505210709 26 247 8.0 11.3 0.00 0.00 0.00 50 1111.0
20260505210207 26 247 0.0 12.9 0.00 0.00 0.00 50 1111.0
20260505205707 26 247 0.0 8.0 0.00 0.00 0.00 50 1111.0
20260505204706 26 247 0.0 6.4 0.00 0.00 0.00 51 1111.0
20260505204208 25 247 3.2 3.2 0.00 0.00 0.00 51 1111.0
20260505203206 25 247 0.0 8.0 0.00 0.00 0.00 51 1111.0
20260505202206 25 247 0.0 6.4 0.00 0.00 0.00 51 1111.0
20260505201705 25 247 0.0 0.0 0.00 0.00 0.00 51 1111.0
20260505201204 25 157 0.0 0.0 0.00 0.00 0.00 52 1111.0
20260505195203 24 247 0.0 9.7 0.00 0.00 0.00 52 1111.0
20260505194703 24 247 0.0 3.2 0.00 0.00 0.00 52 1111.0
20260505193702 24 247 6.4 6.4 0.00 0.00 0.00 52 1111.0
20260505193202 24 247 0.0 6.4 0.00 0.00 0.00 52 1111.0
20260505192702 23 247 0.0 0.0 0.00 0.00 0.00 51 1111.0
20260505192202 23 247 0.0 6.4 0.00 0.00 0.00 51 1111.0
20260505191701 23 247 0.0 0.0 0.00 0.00 0.00 51 1111.0
20260505191201 23 247 0.0 4.8 0.00 0.00 0.00 51 1111.0
20260505190701 23 247 0.0 6.4 0.00 0.00 0.00 51 1111.0
20260505190200 23 247 0.0 6.4 0.00 0.00 0.00 51 1111.0
20260505185200 23 247 0.0 0.0 0.00 0.00 0.00 51 1111.0
20260505184700 23 247 0.0 4.8 0.00 0.00 0.00 51 1111.0
20260505184159 23 247 0.0 0.0 0.00 0.00 0.00 51 1111.0
20260505183659 23 247 0.0 3.2 0.00 0.00 0.00 51 1111.0
20260505183159 23 247 0.0 3.2 0.00 0.00 0.00 51 1111.0
20260505182158 22 247 0.0 0.0 0.00 0.00 0.00 50 1111.0
20260505181658 22 247 0.0 1.6 0.00 0.00 0.00 50 1111.0
20260505180157 22 247 0.0 0.0 0.00 0.00 0.00 50 1111.0
20260505175657 22 247 0.0 0.0 0.00 0.00 0.00 50 1111.0
20260505175157 22 247 0.0 0.0 0.00 0.00 0.00 50 1111.0
20260505174156 21 157 0.0 0.0 0.00 0.00 0.00 50 1111.0
20260505173656 21 157 0.0 0.0 0.00 0.00 0.00 50 1111.0
20260505172655 21 247 0.0 0.0 0.00 0.00 0.00 50 1111.0
20260505172155 21 247 0.0 0.0 0.00 0.00 0.00 50 1111.0
20260505171655 20 247 0.0 0.0 0.00 0.00 0.00 50 1111.0
20260505171154 20 247 0.0 0.0 0.00 0.00 0.00 50 1111.0
20260505170654 20 247 0.0 0.0 0.00 0.00 0.00 50 1111.0
20260505165653 19 157 0.0 0.0 0.00 0.00 0.00 50 1111.0
20260505163652 18 157 0.0 0.0 0.00 0.00 0.00 50 1111.0
20260505162652 18 157 0.0 0.0 0.00 0.00 0.00 50 1111.0
20260505162151 17 157 0.0 0.0 0.00 0.00 0.00 50 1111.0
20260505152648 15 157 0.0 0.0 0.00 0.00 0.00 49 1111.0
20260505152148 15 157 0.0 0.0 0.00 0.00 0.00 49 1111.0
20260505151648 14 157 0.0 0.0 0.00 0.00 0.00 49 1111.0
20260505151148 13 157 0.0 0.0 0.00 0.00 0.00 49 1111.0
20260505150647 13 157 0.0 0.0 0.00 0.00 0.00 49 1111.0
20260505150147 13 157 0.0 0.0 0.00 0.00 0.00 50 1111.0
20260505140644 6 157 0.0 0.0 0.00 0.00 0.00 50 1111.0
20260505130140 80 157 0.0 0.0 0.00 0.00 0.00 10 1111.0
20260505124639 6 157 0.0 0.0 0.00 0.00 0.00 50 1111.0
20260505124139 6 157 0.0 0.0 0.00 0.00 0.00 50 1111.0
20260505123639 6 157 0.0 0.0 0.00 0.00 0.00 50 1111.0
20260505123138 7 157 0.0 0.0 0.00 0.00 0.00 50 1111.0
20260505122138 7 157 0.0 0.0 0.00 0.00 0.00 50 1111.0
20260505121638 7 157 0.0 0.0 0.00 0.00 0.00 50 1111.0
20260505121137 7 157 0.0 0.0 0.00 0.00 0.00 51 1111.0
20260505120637 7 157 0.0 0.0 0.00 0.00 0.00 51 1111.0
20260505120137 7 157 0.0 0.0 0.00 0.00 0.00 51 1111.0
20260505115637 7 157 0.0 0.0 0.00 0.00 0.00 51 1111.0
20260505115136 7 157 0.0 0.0 0.00 0.00 0.00 51 1111.0
20260505114136 7 157 0.0 0.0 0.00 0.00 0.00 51 1111.0
20260505113635 7 157 0.0 0.0 0.00 0.00 0.00 51 1111.0
20260505113135 7 157 0.0 0.0 0.00 0.00 0.00 51 1111.0
20260505112135 7 180 0.0 0.0 0.00 0.00 0.00 51 1111.0
20260505111134 7 180 0.0 0.0 0.00 0.00 0.00 51 1111.0
20260505110634 7 180 0.0 0.0 0.00 0.00 0.00 51 1111.0
20260505110133 7 180 0.0 0.0 0.00 0.00 0.00 51 1111.0
20260505102131 8 180 0.0 0.0 0.00 0.00 0.00 50 1111.0
20260505101131 9 180 0.0 0.0 0.00 0.00 0.00 51 1111.0
20260505100631 9 180 0.0 0.0 0.00 0.00 0.00 51 1111.0
20260505100130 9 180 0.0 0.0 0.00 0.00 0.00 51 1111.0
20260505095630 10 180 0.0 0.0 0.00 0.00 0.00 51 1111.0
20260505095130 10 180 0.0 0.0 0.00 0.00 0.00 51 1111.0
20260505094629 10 157 0.0 0.0 0.00 0.00 0.00 51 1111.0
20260505093629 10 157 0.0 0.0 0.00 0.00 0.00 51 1111.0
20260505093128 10 157 0.0 3.2 0.00 0.00 0.00 51 1111.0
20260505092628 10 157 0.0 0.0 0.00 0.00 0.00 51 1111.0
20260505092128 10 157 0.0 0.0 0.00 0.00 0.00 51 1111.0
20260505090627 10 157 0.0 0.0 0.00 0.00 0.00 51 1111.0
20260505090127 10 157 0.0 0.0 0.00 0.00 0.00 10 1111.0